Torna al catalogo

SAUDISAT 1B

AttivoRadioamatoreLEO
NORAD 26549·PAYLOAD·🇸🇦 Saudi Arabia

Lanciato Sep 26, 2000 da Baikonur Cosmodrome

Loading…

Prossimi Passaggi (prossime 24 ore)

TLE

AggiornatoSource: Space-Track

Epoca: Sep 14, 2026, 11:51 UTC

1 26549U 00057E   26257.49433808  .00000676  00000-0  82241-4 0  9999
2 26549  64.5471  75.3863 0050285 295.7954  63.7972 14.91333152404923

Traccia SAUDISAT 1B in tempo reale con AllMySat

Download on the App Store